www.pogodaiklimat.ru

Погода и климат >> Архив погоды >> Россия >> Забайкальский край >> Борзя


АРХИВ ПОГОДЫ в Борзе

Время (UTC), дата Ветер
(напр.,м/с)
 
Видим.   Явления Облачность Т
(С)
Тd
(С)
f
(%)
Тe
(С)
Тes
(С)
Комфортность P
(гПа)
Po
(гПа)
Тmin
(С)
Tmax
(С)
R
(мм)
R24
(мм)
S
(см)
00 16.04 С 6
{11}
50 км 8/1 600 м
[Cu hum Ci sp]
-0.8 -7.8 59 -7 -6 1006.1 925.1 -2.2
03 16.04 С 4 50 км 9/0
[Ac lent Ci fib]
+3.4 -20.0 16 0 +5 1005.7 925.8
06 16.04 С 2 50 км 9/0
[Ac lent Cs]
+5.4 -22.4 11 +4 +11 1003.7 924.5
09 16.04 С 2 50 км 9/0
[Ac lent Cs]
+5.1 -22.9 11 +4 +5 1002.1 923.0
12 16.04 В 1 н/о 9/0
[Ac lent Ci sp]
+1.7 -21.4 16 +1 +1 1003.0 922.8 +5.7
15 16.04 В 3 н/о 9/0
[Ac lent Ci sp]
+1.8 -19.7 19 -1 -1 1001.1 921.2
18 16.04 СВ 2 н/о 10/0
[Ac As]
+1.1 -7.1 54 -2 -2 1001.5 921.4
21 16.04 СВ 5-10
{11}
н/о в посл. час снег 9/0
[Ac lent Ci sp]
-0.8 -8.1 58 -7 -7 1001.4 920.7
00 17.04 СВ 7-12
{13}
50 км {снег} 10/0
[Ac As]
-0.8 -6.7 64 -8 -7 1002.5 921.7 -2.0 0.0
03 17.04 СВ 7-10
{12}
50 км 9/5 1000 м
[Cu med, cong Ac lent Ci sp]
+2.0 -7.5 49 -4 -3 1003.1 923.0
06 17.04 С 5
{11}
50 км 9/8 600 м
[Cb calv Ci sp]
+2.9 -9.2 41 -2 -0 1004.6 924.7
09 17.04 С 5
{11}
50 км 6/3 600 м
[Cu med, cong Ac lent Ci sp]
+4.1 -11.2 32 0 +1 1007.3 927.5
12 17.04 СЗ 5 н/о 9/3 600 м
[Cb calv Ac trans Ci sp]
+1.7 -7.4 51 -3 -3 1011.7 930.9 +4.5
15 17.04 СЗ 3 н/о 1/0
[Ci sp]
-3.5 -7.7 73 -9 -9 1016.0 933.3
18 17.04 СЗ 4 н/о ясно -5.8 -8.2 83 -12 -12 1019.4 935.8
21 17.04 СЗ 4 н/о ясно -6.9 -9.9 79 -13 -13 1022.3 938.1
00 18.04 СЗ 4 50 км 1/0
[Ci fib]
-2.1 -11.3 49 -7 -5 1022.9 940.1 -7.2
03 18.04 СЗ 5
{10}
50 км 1/0
[Ci fib]
+2.2 -18.7 20 -2 +5 1022.1 940.5
06 18.04 З 3 50 км 3/0
[Ci sp]
+4.9 -20.2 14 +3 +12 опасность
простуды
1019.8 939.2
09 18.04 З 2 50 км 9/0
[Ci sp]
+6.1 -21.1 12 +5 +7 1017.2 937.1
12 18.04 ЮВ 2 н/о 1/0
[Ci fib]
+2.7 -20.6 16 +1 +1 1017.4 936.4 +6.3
15 18.04 В 2 н/о 1/0
[Ci fib]
-7.9 -19.0 40 -12 -12 1020.1 935.8
18 18.04 Ю 5 н/о 9/0
[Ci sp]
+1.7 -19.2 19 -3 -3 1014.8 933.7
21 18.04 ЮВ 5
{12}
50 км 9/0
[Ac lent Ci sp]
+1.1 -18.9 21 -3 -3 1013.1 931.9
00 19.04 Ю 5
{12}
50 км 9/0
[Ac lent Ci sp]
+5.3 -16.9 18 +2 +3 1010.0 930.3 -8.6
03 19.04 Ю 9-16
{16}
2600 м пыльная буря {метель} 9/0
[Ac lent Ci sp]
+15.2 -12.9 13 +13 +14 1002.7 926.1
06 19.04 Ю 11-21
{21}
600 м сильная пыльная буря {метель} ?/? +17.5 -12.5 12 +16 +16 996.8 921.3
09 19.04 Ю 8-18
{21}
800 м сильная пыльная буря {метель} ?/? +19.3 -11.8 11 +18 +18 991.3 916.7
12 19.04 С 12-18
{23}
500 м сильная пыльная буря {метель} ?/? +7.7 -6.9 35 +3 +3 999.3 921.1 +19.4
15 19.04 СЗ 11-17
{18}
н/о сильная пыльная буря {метель} 9/0
[Ci sp]
+1.3 -14.7 29 -6 -6 1006.1 925.6
18 19.04 СЗ 7-11
{18}
н/о пыльная буря {метель} 9/0
[Ci sp]
-3.2 -17.0 34 -10 -10 1010.6 928.5
21 19.04 З 9-14
{15}
500 м пыльная буря {метель} 9/0
[Ci sp]
-4.7 -17.7 35 -13 -13 1014.0 931.1
00 20.04 СЗ 11-16
{17}
20 км {метель} 1/0
[Ci sp]
-1.4 -18.0 27 -9 -9 1015.4 933.4 -4.9
03 20.04 СЗ 8-14
{17}
20 км 4/0
[Ci sp]
+2.7 -17.9 20 -3 -1 1013.9 933.1
06 20.04 СЗ 9-15
{16}
10 км дым 9/4 1000 м
[Cb calv Ci sp]
+5.1 -20.6 14 0 +1 1011.7 931.8
09 20.04 СЗ 9-14
{18}
10 км дым 8/1 1000 м
[Cu hum Ci sp]
+5.2 -20.4 14 0 +1 1011.3 931.4
12 20.04 СЗ 2
{16}
10 км дым 3/0
[Ci sp]
-0.2 -20.2 20 -3 -3 1014.3 932.8 +5.6
15 20.04 З 1 н/о ясно -5.6 -21.4 28 -7 -7 1017.0 933.6
18 20.04 ЮЗ 1 н/о ясно -8.7 -20.7 37 -11 -11 1018.2 933.8
21 20.04 В 1 20 км ясно -12.7 -19.5 57 -15 -15 1019.8 934.0
00 21.04 В 1 20 км 3/0
[Ci fib]
+0.2 -18.0 24 -1 +5 1015.7 934.1 -13.4
03 21.04 З 2 50 км 1/0
[Ci fib]
+6.6 -21.6 11 +6 +18 опасность
простуды
1012.8 933.2
06 21.04 З 3 50 км ясно +9.8 -20.5 10 +9 +18 1009.7 931.2
09 21.04 ЮЗ 3 50 км 3/0
[Ci fib]
+9.9 -21.1 9 +9 +11 1008.3 929.9
12 21.04 ЮВ 2 10 км дым 5/0
[Ci sp]
+6.1 -21.0 12 +5 +5 1008.9 929.4 +10.5
15 21.04 СВ 2 н/о 9/0
[Ci sp]
-3.2 -17.6 32 -6 -6 1011.0 928.8
18 21.04 ЮЗ 2
{10}
н/о 10/0
[Ac As]
+6.6 -20.5 12 +6 +6 1006.5 927.4
21 21.04 ЮВ 4
{11}
10 км дым 10/3 1000 м
[Cb calv Ac As]
+5.6 -20.2 14 +3 +3 1005.6 926.3
00 22.04 ЮВ 6-11
{13}
2800 м слаб. ливневой снег 10/8 600 м
[Cb calv Ac As]
+3.9 -8.8 39 -1 -1 1004.6 925.0 -3.6 0.0
03 22.04 В 8-12
{14}
3900 м мгла 9/3 600 м
[Cb calv Ac trans Ci sp]
+5.8 -1.6 59 +1 +2 1000.9 922.1
06 22.04 СВ 5
{12}
4400 м мгла 9/4 600 м
[Cb calv Ac trans Ci sp]
+7.4 -5.7 39 +4 +6 1000.4 922.1
09 22.04 СЗ 9-13
{15}
20 км 5/3 600 м
[Cu med, cong Ac lent Ci sp]
+7.1 -2.8 49 +2 +3 1003.4 924.8
12 22.04 С 1
{15}
20 км 9/1 1000 м
[Cu med, cong Ac lent Ci sp]
+1.8 -1.9 76 0 0 1008.1 927.7 +8.3 0.8
15 22.04 ЮЗ 2 н/о 4/0
[Ci sp]
-1.9 -4.0 86 -6 -6 1010.4 928.7
18 22.04 СЗ 6
{10}
н/о 3/0
[Ci sp]
+1.2 -13.7 32 -4 -4 1011.9 930.9
21 22.04 З 5 50 км 4/0
[Ac lent Ci sp]
-2.5 -11.9 48 -8 -8 1015.4 933.1

 

Местоположение метеостанции Борзя (Забайкальский край, Россия): широта 50.40 долгота 116.50 высота над уровнем моря 676 м.

В архиве по умолчанию представлена погода в Борзе за последнюю неделю. Архивные данные за месяц целиком и за предыдущие месяцы, начиная с января 2011 года, Вы можете получить, выбрав интересующий диапазон дат из раскрывающегося списка и нажав кнопку "Ввод!".


*Определитесь, кто Вы:
робот инопланетянин человек

Внимание! Время в таблицах - всемирное. Для получения местного времени необходимо прибавить поправку, которая равна 9 ч.

Смотрите также архив погоды в соседних городах и на ближайших метеорологических станциях:

Погода в Бырке (Забайкальский край, Россия) (52 км)
Погода в Соловьевске (Забайкальский край, Россия) (80 км)
Погода в Оловянной (Забайкальский край, Россия) (93 км)
Погода в Нижнем Цасучее (Забайкальский край, Россия) (99 км)
Погода в Забайкальске (Забайкальский край, Россия) (103 км)
Погода в Александровском Заводе (Забайкальский край, Россия) (114 км)
Погода в Балее (Забайкальский край, Россия) (129 км)
Погода в Кайластуе (Забайкальский край, Россия) (143 км)
Погода в Могойтуе (Забайкальский край, Россия) (148 км)
Погода в Шелопугино (Забайкальский край, Россия) (156 км)

Пояснения к столбцам:

Ветер - указаны скорость ветра в м/с - средняя за 10 мин, порывы в срок и между сроками (в фигурных скобках) и направление, откуда дует ветер: С - северный, СВ - северо-восточный, В - восточный, ЮВ - юго-восточный, Ю - южный, ЮЗ - юго-западный, З - западный, СЗ - северо-западный.
Видимость - горизонтальная дальность видимости в метрах или километрах. При видимости от 1 до 10 км при отсутствии осадков обычно наблюдается дымка, при ухудшении видимости до 1 км и менее - туман. В сухую погоду видимость может ухудшаться дымом, пылью или мглою.
Явления - указаны атмосферные явления, наблюдавшиеся в срок или в последний час перед сроком; фигурными скобками обозначены явления, наблюдавшиеся между сроками (за 1-3 часа до срока); квадратными скобками обозначены град или гололедные отложения с указанием их диаметра в мм.
Облачность - указаны через наклонную черту общая и нижняя облачность в баллах и высота нижней границы облаков в метрах; квадратными скобками обозначены формы облаков: Ci - перистые, Cs - перисто-слоистые, Cc - перисто-кучевые, Ac - высококучевые, As - высокослоистые, Sc - слоисто-кучевые, Ns - слоисто-дождевые, Cu - кучевые, Cb - кучево-дождевые. Подробнее классификацию облаков см. в Атласе облаков (PDF).
T - Температура воздуха - температура, измеренная на высоте 2 м над землей.
Td - Температура точки росы - температура, при понижении до которой содержащийся в воздухе водяной пар достигнет насыщения.
f - Относительная влажность воздуха - влажноcть воздуха, измеренная на высоте 2 м над землей.
Te - Эффективная температура - температура, которую ощущает одетый по сезону человек в тени. Характеристика душности погоды. При расчете учитывается влияние влажности воздуха и скорости ветра на теплоощущения человека.
Tes - Эффективная температура на солнце - температура, которую ощущает человек, с поправкой на солнечный нагрев. Характеристика знойности погоды. Зависит от высоты солнца над горизонтом, облачности и скорости ветра. Ночью, в пасмурную погоду, а также при ветре 12 м/с и более поправка равна нулю.
P - Атмосферное давление - приведенное к уровню моря атмосферное давление.
Po - Атмосферное давление - измеренное на уровне метеостанции атмосферное давление.
Tmin - Минимальная температура - минимум температуры воздуха на высоте 2 м над землей.
Tmax - Максимальная температура - максимум температуры воздуха на высоте 2 м над землей.
R - Количество осадков - Количество выпавших осадков за период времени, мм. При наведении курсора мыши на число - период времени, за который выпало указанное количество осадков.
R24 - Количество осадков - Количество выпавших осадков за 24 часа, мм.
S - Снежный покров - Высота снежного покрова, см. При наведении курсора мыши на число - состояние снежного покрова и степень покрытия местности в баллах.